COSMOS 2374 (GLONASS) 1 26566U 00063C 09184.29015350 .00000062 00000-0 10000-3 0 5382 2 26566 064.5291 163.3998 0053613 215.9473 297.0381 02.13100371 67856 COSMOS 2382 (GLONASS) 1 26987U 01053A 09184.77186235 -.00000051 +00000-0 +10000-3 0 01614 2 26987 063.6371 279.5669 0007330 179.7179 207.2464 02.13102708059056 COSMOS 2381 (GLONASS) 1 26988U 01053B 09184.80358858 -.00000051 00000-0 10000-3 0 1655 2 26988 063.6422 279.5708 0027915 208.1796 297.6090 02.13104383 59061 COSMOS 2394 (GLONASS) 1 27617U 02060A 09184.77324260 +.00000057 +00000-0 +10000-3 0 08179 2 27617 064.7316 163.8436 0000946 178.9578 194.6335 02.13102631050800 COSMOS 2396 (GLONASS) 1 27618U 02060B 09184.86132671 +.00000056 +00000-0 +10000-3 0 08363 2 27618 064.7338 163.8144 0015677 159.1525 006.8103 02.13101575050781 COSMOS 2395 (GLONASS) 1 27619U 02060C 09184.74050024 +.00000058 +00000-0 +10000-3 0 08454 2 27619 064.7436 163.8849 0007278 285.2061 107.3498 02.13102757050784 COSMOS 2404 (GLONASS) 1 28112U 03056A 09184.81477975 -.00000055 +00000-0 +10000-3 0 06192 2 28112 063.9438 282.0861 0045675 103.3763 273.0095 02.13095859043304 COSMOS 2402 (GLONASS) 1 28113U 03056B 09184.73565801 -.00000056 00000-0 10000-3 0 5549 2 28113 063.9635 282.0973 0039386 096.7699 044.9676 02.13104291 43304 COSMOS 2403 (GLONASS) 1 28114U 03056C 09184.86249022 -.00000055 +00000-0 +10000-3 0 05536 2 28114 063.9678 282.1112 0037306 080.9583 069.5203 02.13104518043306 COSMOS 2413 (GLONASS) 1 28508U 04053A 09184.68290993 -.00000054 +00000-0 +10000-3 0 02686 2 28508 063.8451 280.9205 0011312 166.4439 336.8836 02.13103986035164 COSMOS 2411 (GLONASS) 1 28509U 04053B 09184.59136593 -.00000055 +00000-0 +10000-3 0 02694 2 28509 063.8393 280.8934 0007308 157.6418 000.4362 02.13100183035161 COSMOS 2412 (GLONASS) 1 28510U 04053C 09184.63626188 -.00000055 +00000-0 +10000-3 0 02707 2 28510 063.8519 280.9463 0004408 193.1254 315.2206 02.13103264035169 COSMOS 2419 (GLONASS) 1 28915U 05050A 09184.61291416 +.00000058 +00000-0 +10000-3 0 09949 2 28915 064.8659 163.2535 0009845 322.8239 239.0710 02.13101933027414 COSMOS 2418 (GLONASS) 1 28916U 05050B 09184.63464197 +.00000058 +00000-0 +10000-3 0 09838 2 28916 064.8843 163.2868 0020674 329.7395 202.3762 02.13104154027419 COSMOS 2417 (GLONASS) 1 28917U 05050C 09184.77507063 .00000056 00000-0 00000+0 0 9736 2 28917 064.8682 163.2673 0015873 143.1601 231.2062 02.13103032 27416 COSMOS 2425 (GLONASS) 1 29670U 06062A 09184.89665146 -.00000044 00000-0 10000-3 0 7132 2 29670 065.3927 042.3878 0024064 354.3972 053.4380 02.13103238 19623 COSMOS 2426 (GLONASS) 1 29671U 06062B 09184.79136786 -.00000044 +00000-0 +10000-3 0 07236 2 29671 065.4092 042.4199 0018104 164.1178 029.1529 02.13103722019621 COSMOS 2424 (GLONASS) 1 29672U 06062C 09184.58829532 -.00000046 00000-0 10000-3 0 7380 2 29672 065.3953 042.4013 0015660 162.4247 055.2484 02.13103676 19611 COSMOS 2433 (GLONASS) 1 32275U 07052A 09184.80875164 +.00000055 +00000-0 +00000-0 0 04663 2 32275 064.8777 162.9872 0005281 272.5533 261.3337 02.13102430013137 COSMOS 2432 (GLONASS) 1 32276U 07052B 09184.88985744 +.00000054 +00000-0 +10000-3 0 04458 2 32276 064.8913 163.0086 0016250 331.0884 219.5250 02.13102200013131 COSMOS 2431 (GLONASS) 1 32277U 07052C 09184.62671904 .00000057 00000-0 00000+0 0 4572 2 32277 064.8940 163.0112 0018873 199.8957 284.2037 02.13102335 13216 COSMOS 2434 (GLONASS) 1 32393U 07065A 09184.75858888 -.00000046 00000-0 00000+0 0 3014 2 32393 065.0133 042.9122 0005389 106.6983 284.7250 02.13103173 11841 COSMOS 2435 (GLONASS) 1 32394U 07065B 09184.48253469 -.00000048 00000-0 00000+0 0 2706 2 32394 065.0127 042.9247 0004044 070.8695 289.2394 02.13103367 11778 COSMOS 2436 (GLONASS) 1 32395U 07065C 09184.13013785 -.00000050 +00000-0 +10000-3 0 02836 2 32395 065.0243 042.9364 0018824 000.1328 359.9315 02.13103502011766 COSMOS 2442 (GLONASS) 1 33378U 08046A 09184.26195838 +.00000061 +00000-0 +10000-3 0 02394 2 33378 064.7910 162.6496 0029858 331.4294 187.6525 02.13102262005980 COSMOS 2443 (GLONASS) 1 33379U 08046B 09184.70934694 +.00000056 +00000-0 +10000-3 0 02300 2 33379 064.7994 162.6676 0020960 189.9927 177.6425 02.13102442006009 COSMOS 2444 (GLONASS) 1 33380U 08046C 09184.87192601 .00000053 00000-0 10000-3 0 2288 2 33380 064.8085 162.6707 0031718 325.5946 121.6612 02.13102670 5997 COSMOS 2447 (GLONASS) 1 33466U 08067A 09184.81132545 -.00000058 +00000-0 +00000-0 0 01709 2 33466 064.6931 283.7164 0003853 232.9707 272.4466 02.13101692004058 COSMOS 2449 (GLONASS) 1 33467U 08067B 09184.64028831 -.00000060 +00000-0 +00000-0 0 01728 2 33467 064.6807 283.7103 0003234 250.4158 259.0575 02.13101794004079 COSMOS 2448 (GLONASS) 1 33468U 08067C 09184.74898356 -.00000059 +00000-0 +00000-0 0 01781 2 33468 064.6847 283.7058 0003451 288.8073 213.6408 02.13101284004069